GW6871 Weather Reports


time (UTC)temp
C
wind
direction
speed
KPH
gust
KPH
rain 1hr
cm
rain 24hr
cm
rain mn
cm
humidity
%
barometer
mb
20260509013307 26 305 0.0 4.8 0.00 0.00 0.00 66 1011.2
20260509012803 26 255 0.0 3.2 0.00 0.00 0.00 65 1011.1
20260509012300 27 225 0.0 1.6 0.00 0.00 0.00 64 1011.0
20260509011757 26 346 0.0 1.6 0.00 0.00 0.00 66 1011.2
20260509011254 25 338 0.0 1.6 0.00 0.00 0.00 68 1011.1
20260509010752 25 242 1.6 3.2 0.00 0.00 0.00 67 1011.0
20260509010248 25 160 1.6 4.8 0.00 0.00 0.00 69 1010.7
20260509005746 25 294 3.2 6.4 0.00 0.00 0.00 70 1010.9
20260509005244 25 327 1.6 6.4 0.00 0.00 0.00 70 1010.8
20260509004743 25 67 0.0 6.4 0.00 0.00 0.00 71 1010.6
20260509004241 25 45 3.2 6.4 0.00 0.00 0.00 71 1010.7
20260509003739 25 251 0.0 1.6 0.00 0.00 0.00 73 1010.5
20260509003236 25 282 1.6 3.2 0.00 0.00 0.00 75 1010.6
20260509002733 25 318 0.0 1.6 0.00 0.00 0.00 76 1010.3
20260509002231 25 313 1.6 1.6 0.00 0.00 0.00 76 1010.3
20260509001728 25 342 0.0 3.2 0.00 0.00 0.00 75 1010.3
20260509001224 25 308 1.6 4.8 0.00 0.00 0.00 75 1010.1
20260509000722 25 341 1.6 4.8 0.00 0.00 0.00 76 1010.3
20260509000219 25 296 0.0 4.8 0.00 0.00 0.00 76 1010.4
20260508235716 25 260 0.0 3.2 0.00 0.00 0.00 77 1010.3
20260508235212 25 276 0.0 3.2 0.00 0.00 0.00 77 1010.1
20260508234710 25 323 0.0 1.6 0.00 0.00 0.00 77 1010.0
20260508234206 25 3 3.2 3.2 0.00 0.00 0.00 77 1009.9
20260508233706 25 73 3.2 6.4 0.00 0.00 0.00 77 1009.8
20260508233203 25 332 3.2 4.8 0.00 0.00 0.00 78 1010.0
20260508232700 25 323 1.6 6.4 0.00 0.00 0.00 78 1009.9
20260508232156 25 302 3.2 4.8 0.00 0.00 0.00 78 1009.8
20260508231655 25 326 0.0 4.8 0.00 0.00 0.00 78 1009.9
20260508231151 25 308 0.0 3.2 0.00 0.00 0.00 79 1009.9
20260508230648 25 290 1.6 3.2 0.00 0.00 0.00 78 1009.7
20260508230144 25 358 4.8 6.4 0.00 0.00 0.00 78 1009.6
20260508225642 25 316 3.2 4.8 0.00 0.00 0.00 78 1009.7
20260508225138 25 319 1.6 3.2 0.00 0.00 0.00 78 1009.4
20260508224636 25 326 3.2 3.2 0.00 0.00 0.00 78 1009.5
20260508224134 25 312 3.2 3.2 0.00 0.00 0.00 77 1009.4
20260508223631 25 307 1.6 4.8 0.00 0.00 0.00 77 1009.4
20260508223128 25 327 0.0 0.0 0.00 0.00 0.00 77 1009.2
20260508222626 25 325 0.0 1.6 0.00 0.00 0.00 77 1009.4
20260508222122 25 346 1.6 3.2 0.00 0.00 0.00 77 1009.3
20260508221619 25 87 1.6 1.6 0.00 0.00 0.00 77 1009.2
20260508221114 25 322 1.6 3.2 0.00 0.00 0.00 78 1009.4
20260508220611 25 320 1.6 3.2 0.00 0.00 0.00 77 1009.4
20260508220108 25 306 1.6 3.2 0.00 0.00 0.00 77 1009.2
20260508215605 25 310 1.6 1.6 0.00 0.00 0.00 78 1009.3
20260508215101 25 299 0.0 1.6 0.00 0.00 0.00 78 1009.4
20260508214559 25 295 0.0 3.2 0.00 0.00 0.00 77 1009.4
20260508214055 25 307 0.0 1.6 0.00 0.00 0.00 78 1009.0
20260508213552 25 305 1.6 1.6 0.00 0.00 0.00 78 1009.0
20260508213048 25 305 0.0 1.6 0.00 0.00 0.00 78 1009.1
20260508212545 25 299 0.0 0.0 0.00 0.00 0.00 80 1009.5
20260508212041 25 300 0.0 3.2 0.00 0.00 0.00 80 1009.4
20260508211537 25 330 1.6 3.2 0.00 0.00 0.00 80 1009.3
20260508211033 25 286 1.6 3.2 0.00 0.00 0.00 80 1009.5
20260508210530 25 302 0.0 4.8 0.00 0.00 0.00 80 1009.5
20260508210028 25 308 1.6 4.8 0.00 0.00 0.00 80 1009.6
20260508205524 25 314 1.6 4.8 0.00 0.00 0.00 79 1009.7
20260508205020 25 302 1.6 1.6 0.00 0.00 0.00 80 1009.6
20260508204518 25 275 1.6 1.6 0.00 0.00 0.00 79 1009.7
20260508204013 25 266 0.0 0.0 0.00 0.00 0.00 79 1009.3
20260508203509 25 266 0.0 1.6 0.00 0.00 0.00 79 1009.4
20260508203005 25 266 0.0 0.0 0.00 0.00 0.00 77 1009.0
20260508202503 25 266 0.0 0.0 0.00 0.00 0.00 77 1009.0
20260508201959 25 266 0.0 0.0 0.00 0.00 0.00 77 1008.9
20260508201456 26 266 0.0 0.0 0.00 0.00 0.00 76 1009.1
20260508200952 26 266 0.0 0.0 0.00 0.00 0.00 76 1009.0
20260508200450 26 266 0.0 0.0 0.00 0.00 0.00 76 1008.9
20260508195944 25 266 0.0 0.0 0.00 0.00 0.00 76 1009.1
20260508195442 25 266 0.0 0.0 0.00 0.00 0.00 76 1009.0
20260508194938 25 266 0.0 0.0 0.00 0.00 0.00 76 1009.3
20260508194435 25 266 0.0 1.6 0.00 0.00 0.00 76 1008.9
20260508193932 25 264 0.0 0.0 0.00 0.00 0.00 76 1009.0
20260508193430 25 265 0.0 1.6 0.00 0.00 0.00 76 1009.1
20260508192925 25 269 0.0 0.0 0.00 0.00 0.00 76 1009.3
20260508192423 25 273 0.0 0.0 0.00 0.00 0.00 76 1009.2
20260508191919 25 325 1.6 1.6 0.00 0.00 0.00 76 1009.3
20260508191417 25 310 1.6 1.6 0.00 0.00 0.00 76 1009.5
20260508190913 25 320 0.0 1.6 0.00 0.00 0.00 76 1009.5
20260508190410 25 299 0.0 1.6 0.00 0.00 0.00 76 1009.4
20260508185906 25 298 0.0 1.6 0.00 0.00 0.00 76 1009.6
20260508185404 25 286 0.0 0.0 0.00 0.00 0.00 75 1009.9
20260508184901 25 286 0.0 1.6 0.00 0.00 0.00 75 1009.8
20260508184359 25 286 0.0 0.0 0.00 0.00 0.00 75 1009.8
20260508183855 25 286 0.0 1.6 0.00 0.00 0.00 75 1009.8
20260508183352 25 299 1.6 1.6 0.00 0.00 0.00 75 1009.6
20260508182848 25 314 0.0 0.0 0.00 0.00 0.00 76 1009.7
20260508182345 25 351 1.6 3.2 0.00 0.00 0.00 77 1009.6
20260508181840 25 273 0.0 1.6 0.00 0.00 0.00 77 1009.6
20260508181337 25 280 3.2 3.2 0.00 0.00 0.00 76 1009.8
20260508180834 25 267 0.0 3.2 0.00 0.00 0.00 76 1009.7
20260508180331 25 262 1.6 3.2 0.00 0.00 0.00 75 1009.7
20260508175827 25 257 0.0 1.6 0.00 0.00 0.00 76 1009.5
20260508175324 25 250 3.2 3.2 0.00 0.00 0.00 75 1009.7
20260508174822 25 218 1.6 3.2 0.00 0.00 0.00 76 1009.6
20260508174319 26 298 4.8 9.7 0.00 0.00 0.00 75 1009.8
20260508173815 26 285 3.2 3.2 0.00 0.00 0.00 74 1009.9
20260508173312 26 241 0.0 1.6 0.00 0.00 0.00 73 1009.9
20260508172808 27 240 0.0 3.2 0.00 0.00 0.00 73 1009.9
20260508172307 27 233 0.0 1.6 0.00 0.00 0.00 72 1010.2
20260508171802 27 192 1.6 4.8 0.00 0.00 0.00 72 1009.9
20260508171258 27 213 0.0 0.0 0.00 0.00 0.00 72 1010.0
20260508170755 27 206 0.0 1.6 0.00 0.00 0.00 72 1010.1
20260508170253 27 190 0.0 3.2 0.00 0.00 0.00 72 1010.0
20260508165749 27 212 0.0 1.6 0.00 0.00 0.00 72 1010.1
20260508165247 27 203 0.0 0.0 0.00 0.00 0.00 72 1010.3
20260508164743 27 199 1.6 1.6 0.00 0.00 0.00 72 1010.5
20260508164240 27 216 0.0 1.6 0.00 0.00 0.00 73 1010.4
20260508163738 27 238 0.0 1.6 0.00 0.00 0.00 73 1010.5
20260508163235 27 238 0.0 1.6 0.00 0.00 0.00 72 1010.5
20260508162731 27 212 0.0 0.0 0.00 0.00 0.00 72 1010.4
20260508162228 27 220 0.0 1.6 0.00 0.00 0.00 72 1010.2
20260508161725 27 234 0.0 0.0 0.00 0.00 0.00 72 1010.2
20260508161222 27 214 0.0 1.6 0.00 0.00 0.00 71 1010.2
20260508160720 27 214 1.6 1.6 0.00 0.00 0.00 72 1010.2
20260508160218 27 185 1.6 3.2 0.00 0.00 0.00 73 1010.1
20260508155714 27 187 0.0 4.8 0.00 0.00 0.00 73 1010.1
20260508155211 27 177 3.2 4.8 0.00 0.00 0.00 74 1010.2
20260508154708 27 230 0.0 1.6 0.00 0.00 0.00 74 1010.4
20260508154206 27 262 1.6 3.2 0.00 0.00 0.00 73 1010.4
20260508153702 27 221 1.6 1.6 0.00 0.00 0.00 73 1010.3
20260508153159 27 254 0.0 1.6 0.00 0.00 0.00 73 1010.1
20260508152655 27 254 0.0 0.0 0.00 0.00 0.00 73 1010.3
20260508152151 27 261 0.0 0.0 0.00 0.00 0.00 74 1010.5
20260508151648 27 261 0.0 3.2 0.00 0.00 0.00 74 1010.2
20260508151144 27 237 3.2 4.8 0.00 0.00 0.00 74 1010.6
20260508150642 27 236 1.6 3.2 0.00 0.00 0.00 74 1010.5
20260508150138 27 255 3.2 4.8 0.00 0.00 0.00 75 1010.5
20260508145634 27 283 1.6 6.4 0.00 0.00 0.00 75 1010.6
20260508145131 27 276 3.2 9.7 0.00 0.00 0.00 75 1010.5
20260508144628 28 254 3.2 14.5 0.00 0.00 0.00 74 1010.6
20260508144126 28 247 1.6 4.8 0.00 0.00 0.00 74 1010.4
20260508143623 28 252 0.0 1.6 0.00 0.00 0.00 74 1010.0
20260508143120 29 242 1.6 1.6 0.00 0.00 0.00 73 1009.9
20260508142616 29 275 0.0 0.0 0.00 0.00 0.00 73 1009.5
20260508142113 29 275 0.0 0.0 0.00 0.00 0.00 73 1009.5
20260508141610 29 275 0.0 0.0 0.00 0.00 0.00 73 1009.2
20260508141108 28 275 0.0 0.0 0.00 0.00 0.00 73 1009.2
20260508140604 28 275 0.0 0.0 0.00 0.00 0.00 74 1008.8
20260508135556 28 274 0.0 1.6 0.00 0.00 0.00 74 1009.1
20260508135053 29 274 0.0 1.6 0.00 0.00 0.00 75 1009.0
20260508134550 30 286 1.6 1.6 0.00 0.00 0.00 74 1008.7
20260508134047 30 294 0.0 0.0 0.00 0.00 0.00 72 1008.7
20260508133543 30 295 0.0 0.0 0.00 0.00 0.00 71 1008.1
20260508133041 30 295 0.0 0.0 0.00 0.00 0.00 70 1008.1
20260508132539 30 294 0.0 0.0 0.00 0.00 0.00 70 1007.8
20260508132035 30 294 0.0 0.0 0.00 0.00 0.00 70 1007.8
20260508131530 30 295 0.0 0.0 0.00 0.00 0.00 70 1007.8
20260508131027 30 294 0.0 0.0 0.00 0.00 0.00 70 1007.9
20260508130525 30 295 0.0 1.6 0.00 0.00 0.00 69 1007.8
20260508130021 30 294 0.0 1.6 0.00 0.00 0.00 69 1007.8
20260508125516 30 296 1.6 1.6 0.00 0.00 0.00 68 1008.1
20260508125015 31 243 0.0 0.0 0.00 0.00 0.00 68 1007.7
20260508124512 31 247 0.0 1.6 0.00 0.00 0.00 68 1007.7
20260508124009 31 258 1.6 1.6 0.00 0.00 0.00 67 1007.8
20260508123508 31 257 0.0 1.6 0.00 0.00 0.00 67 1007.7
20260508123004 31 276 0.0 1.6 0.00 0.00 0.00 67 1007.7
20260508122501 31 309 0.0 1.6 0.00 0.00 0.00 67 1007.9
20260508121958 31 325 0.0 1.6 0.00 0.00 0.00 67 1007.7
20260508121456 31 326 0.0 1.6 0.00 0.00 0.00 67 1007.7
20260508120954 31 309 1.6 1.6 0.00 0.00 0.00 66 1007.6
20260508120451 31 332 0.0 3.2 0.00 0.00 0.00 66 1007.5
20260508115949 31 305 1.6 3.2 0.00 0.00 0.00 66 1007.7
20260508115447 32 349 3.2 4.8 0.00 0.00 0.00 66 1007.8
20260508114943 32 332 0.0 4.8 0.00 0.00 0.00 66 1007.6
20260508114440 32 324 3.2 3.2 0.00 0.00 0.00 65 1007.6
20260508113936 32 306 1.6 4.8 0.00 0.00 0.00 65 1007.8
20260508113434 32 309 1.6 3.2 0.00 0.00 0.00 65 1007.9
20260508112931 32 313 0.0 1.6 0.00 0.00 0.00 64 1007.9
20260508112428 33 301 0.0 1.6 0.00 0.00 0.00 64 1008.0
20260508111924 33 311 0.0 1.6 0.00 0.00 0.00 63 1007.6
20260508111422 33 303 0.0 1.6 0.00 0.00 0.00 63 1007.7
20260508110919 32 298 1.6 3.2 0.00 0.00 0.00 64 1007.4
20260508110417 32 299 0.0 3.2 0.00 0.00 0.00 63 1007.3
20260508105916 33 286 1.6 1.6 0.00 0.00 0.00 63 1007.4
20260508105412 33 304 0.0 1.6 0.00 0.00 0.00 61 1007.2
20260508104910 34 306 1.6 3.2 0.00 0.00 0.00 60 1007.6
20260508104407 35 270 0.0 0.0 0.00 0.00 0.00 61 1007.6
20260508103904 35 270 1.6 3.2 0.00 0.00 0.00 59 1007.7
20260508103401 34 274 0.0 1.6 0.00 0.00 0.00 61 1007.6
20260508102858 34 260 1.6 3.2 0.00 0.00 0.00 62 1007.9
20260508102356 35 288 0.0 3.2 0.00 0.00 0.00 61 1007.8
20260508101853 35 278 0.0 1.6 0.00 0.00 0.00 59 1007.8
20260508101350 35 278 0.0 1.6 0.00 0.00 0.00 60 1007.7
20260508100848 34 269 0.0 1.6 0.00 0.00 0.00 60 1007.7
20260508100347 35 273 1.6 3.2 0.00 0.00 0.00 60 1007.6
20260508095842 35 262 0.0 3.2 0.00 0.00 0.00 60 1007.7
20260508095340 34 282 0.0 1.6 0.00 0.00 0.00 58 1007.5
20260508094836 35 296 1.6 3.2 0.00 0.00 0.00 59 1007.8
20260508094333 35 274 0.0 1.6 0.00 0.00 0.00 59 1007.9
20260508093830 34 264 1.6 1.6 0.00 0.00 0.00 61 1008.1
20260508093328 34 274 1.6 1.6 0.00 0.00 0.00 60 1008.1
20260508092825 34 276 0.0 1.6 0.00 0.00 0.00 61 1008.2
20260508092323 33 236 0.0 1.6 0.00 0.00 0.00 61 1008.3
20260508091821 35 212 0.0 4.8 0.00 0.00 0.00 60 1008.6
20260508091317 35 233 0.0 1.6 0.00 0.00 0.00 60 1008.3
20260508090815 34 255 1.6 3.2 0.00 0.00 0.00 60 1008.6
20260508090313 34 250 1.6 4.8 0.00 0.00 0.00 61 1008.6
20260508085808 34 42 1.6 4.8 0.00 0.00 0.00 61 1008.7
20260508085307 35 330 3.2 4.8 0.00 0.00 0.00 60 1008.7
20260508084801 33 253 0.0 1.6 0.00 0.00 0.00 62 1008.6
20260508084259 33 191 1.6 3.2 0.00 0.00 0.00 63 1009.0
20260508083757 33 44 0.0 3.2 0.00 0.00 0.00 62 1008.9
20260508083254 35 312 0.0 3.2 0.00 0.00 0.00 62 1009.0
20260508082753 35 209 0.0 3.2 0.00 0.00 0.00 60 1009.2
20260508082252 35 274 1.6 1.6 0.00 0.00 0.00 58 1009.4
20260508081748 34 290 0.0 1.6 0.00 0.00 0.00 59 1009.3
20260508081245 34 291 1.6 3.2 0.00 0.00 0.00 59 1009.4
20260508080742 34 273 0.0 3.2 0.00 0.00 0.00 59 1009.5
20260508080240 33 274 0.0 1.6 0.00 0.00 0.00 62 1009.6
20260508075736 33 266 0.0 3.2 0.00 0.00 0.00 62 1009.8
20260508075233 33 287 0.0 1.6 0.00 0.00 0.00 61 1009.8
20260508074731 33 267 0.0 3.2 0.00 0.00 0.00 63 1009.8
20260508074229 33 247 1.6 3.2 0.00 0.00 0.00 62 1009.7
20260508073725 34 287 3.2 3.2 0.00 0.00 0.00 60 1009.8
20260508073223 34 249 0.0 1.6 0.00 0.00 0.00 60 1010.0
20260508072719 33 278 1.6 3.2 0.00 0.00 0.00 61 1010.2
20260508072216 32 279 0.0 3.2 0.00 0.00 0.00 63 1010.1
20260508071713 33 268 1.6 3.2 0.00 0.00 0.00 62 1010.2
20260508071212 33 290 0.0 3.2 0.00 0.00 0.00 61 1010.2
20260508070709 35 245 3.2 3.2 0.00 0.00 0.00 60 1010.2
20260508070208 36 275 0.0 1.6 0.00 0.00 0.00 57 1010.2
20260508065704 35 295 0.0 1.6 0.00 0.00 0.00 57 1010.5
20260508065202 34 242 0.0 1.6 0.00 0.00 0.00 58 1010.2
20260508064659 33 280 1.6 3.2 0.00 0.00 0.00 56 1010.5
20260508064158 33 211 0.0 3.2 0.00 0.00 0.00 59 1010.4
20260508063655 33 217 0.0 0.0 0.00 0.00 0.00 56 1010.4
20260508063152 34 258 0.0 3.2 0.00 0.00 0.00 57 1010.4
20260508062650 33 243 0.0 3.2 0.00 0.00 0.00 57 1010.6
20260508062147 33 266 0.0 0.0 0.00 0.00 0.00 54 1010.6
20260508061643 32 284 1.6 3.2 0.00 0.00 0.00 57 1010.7
20260508061141 32 214 0.0 1.6 0.00 0.00 0.00 57 1010.9
20260508060638 33 258 3.2 4.8 0.00 0.00 0.00 54 1011.0
20260508060135 33 251 1.6 1.6 0.00 0.00 0.00 56 1011.1
20260508055630 33 254 1.6 1.6 0.00 0.00 0.00 56 1011.4
20260508055128 33 262 1.6 1.6 0.00 0.00 0.00 56 1011.3
20260508054624 32 247 1.6 1.6 0.00 0.00 0.00 55 1011.4
20260508054122 32 275 3.2 3.2 0.00 0.00 0.00 58 1011.2
20260508053618 32 254 0.0 1.6 0.00 0.00 0.00 59 1011.6
20260508053116 31 259 1.6 3.2 0.00 0.00 0.00 61 1011.3
20260508052613 32 254 0.0 1.6 0.00 0.00 0.00 60 1011.5
20260508052110 32 264 1.6 3.2 0.00 0.00 0.00 60 1011.7
20260508051606 32 276 0.0 0.0 0.00 0.00 0.00 57 1011.7
20260508051102 32 284 0.0 1.6 0.00 0.00 0.00 60 1011.6
20260508050558 32 245 0.0 0.0 0.00 0.00 0.00 59 1012.0
20260508050056 32 250 3.2 4.8 0.00 0.00 0.00 61 1011.8
20260508045551 31 252 0.0 3.2 0.00 0.00 0.00 62 1011.7
20260508045050 31 239 1.6 1.6 0.00 0.00 0.00 62 1011.7
20260508044547 31 282 0.0 3.2 0.00 0.00 0.00 63 1011.9
20260508044042 31 310 0.0 1.6 0.00 0.00 0.00 64 1011.7
20260508043539 31 254 4.8 6.4 0.00 0.00 0.00 62 1011.9
20260508043037 31 293 1.6 4.8 0.00 0.00 0.00 64 1012.0
20260508042533 30 302 1.6 3.2 0.00 0.00 0.00 64 1011.9
20260508042031 31 323 1.6 3.2 0.00 0.00 0.00 63 1012.0
20260508041527 31 269 0.0 1.6 0.00 0.00 0.00 62 1011.9
20260508041024 30 212 3.2 3.2 0.00 0.00 0.00 64 1012.1
20260508040521 30 291 1.6 3.2 0.00 0.00 0.00 66 1011.9
20260508040018 30 207 1.6 3.2 0.00 0.00 0.00 66 1012.0
20260508035515 29 184 3.2 4.8 0.00 0.00 0.00 66 1012.4
20260508035012 30 172 1.6 4.8 0.00 0.00 0.00 66 1012.2
20260508034509 30 307 0.0 1.6 0.00 0.00 0.00 68 1012.1
20260508034006 30 324 0.0 1.6 0.00 0.00 0.00 66 1012.2
20260508033504 29 204 0.0 1.6 0.00 0.00 0.00 64 1012.2
20260508033001 30 275 1.6 1.6 0.00 0.00 0.00 65 1012.2
20260508032458 28 250 0.0 1.6 0.00 0.00 0.00 68 1012.3
20260508031955 29 255 1.6 1.6 0.00 0.00 0.00 66 1012.2
20260508031453 29 275 1.6 1.6 0.00 0.00 0.00 66 1012.3
20260508030948 29 294 0.0 0.0 0.00 0.00 0.00 66 1012.3
20260508030445 28 294 0.0 0.0 0.00 0.00 0.00 68 1012.2
20260508025943 28 294 0.0 1.6 0.00 0.00 0.00 68 1012.3
20260508025439 27 294 0.0 1.6 0.00 0.00 0.00 70 1012.1
20260508024936 27 302 1.6 4.8 0.00 0.00 0.00 73 1012.3
20260508024432 27 172 1.6 3.2 0.00 0.00 0.00 69 1012.1
20260508023929 27 161 0.0 1.6 0.00 0.00 0.00 72 1012.1
20260508023426 27 220 0.0 1.6 0.00 0.00 0.00 72 1012.0
20260508022923 26 301 0.0 1.6 0.00 0.00 0.00 74 1012.1
20260508022419 26 329 1.6 3.2 0.00 0.00 0.00 74 1011.9
20260508021916 26 319 1.6 3.2 0.00 0.00 0.00 73 1012.0
20260508021412 26 317 0.0 1.6 0.00 0.00 0.00 74 1011.8
20260508020908 26 312 0.0 3.2 0.00 0.00 0.00 74 1011.8
20260508020406 26 295 0.0 0.0 0.00 0.00 0.00 72 1011.8
20260508015903 26 295 0.0 3.2 0.00 0.00 0.00 75 1011.6
20260508015400 26 290 0.0 1.6 0.00 0.00 0.00 74 1011.9
20260508014856 26 294 0.0 1.6 0.00 0.00 0.00 74 1011.7
20260508014354 26 289 0.0 1.6 0.00 0.00 0.00 75 1011.7
20260508013849 26 303 0.0 1.6 0.00 0.00 0.00 74 1011.8